Home   Weather   San Bernardino   Past weeks

Flag for USA Past Weather in San Bernardino, California, USA — Yesterday and Last 2 Weeks

Now
48 °F

Passing clouds.


Feels Like: 48 °F
Forecast: 44 / 61 °F
Wind: No wind

Location: Riverside Municipal Airport

Current Time: Dec 7, 2016 at 6:29:45 am

Latest Report: Dec 7, 2016 at 5:53 am


Visibility: 9 mi

Pressure: 30.03 "Hg

Humidity: 93%

Dew Point: 46 °F

Location of San BernardinoLocation

Past Weather in San Bernardino — Graph

°F

San Bernardino Temperature Yesterday

Maximum temperature yesterday: 62 °F (at 1:53 pm)
Minimum temperature yesterday: 50 °F (at 6:53 am)
Average temperature yesterday: 56 °F

High & Low Weather Summary for the Past Weeks

 TemperatureHumidityPressure
High78 °F (Nov 25, 1:53 pm)100% (Nov 27, 5:53 am)30.18 "Hg (Nov 27, 5:53 am)
Low40 °F (Nov 26, 5:53 am)8% (Dec 3, 12:53 pm)29.80 "Hg (Nov 28, 3:53 pm)
Average56 °F54%30.00 "Hg
* Reported Nov 22 4:53 am — Dec 7 4:53 am, San Bernardino, Weather by CustomWeather, © 2016

Note: Actual official high and low records may vary slightly from our data, if they occured in-between our weather recording intervals... More about our weather records

Advertising

San Bernardino Weather History for the Previous 24 Hours

Scroll right to see more
 ConditionsComfort  
Time TempWeatherWind HumidityBarometerVisibility
4:53 am
Wed, Dec 7
48 °FClear.No wind96%30.01 "Hg9 mi
3:53 am50 °FPassing clouds.No wind93%29.99 "Hg9 mi
3:01 am50 °FMostly cloudy.No wind93%30.02 "Hg8 mi
1:53 am51 °FPassing clouds.3 mph89%29.99 "Hg9 mi
12:53 am53 °FPassing clouds.No wind86%29.99 "Hg9 mi
11:53 pm
Tue, Dec 6
54 °FMostly cloudy.No wind83%29.99 "Hg10 mi
10:53 pm54 °FOvercast.No wind83%29.99 "Hg10 mi
9:53 pm55 °FOvercast.No wind80%29.98 "Hg10 mi
8:53 pm56 °FOvercast.No wind77%29.97 "Hg10 mi
7:53 pm55 °FPassing clouds.3 mph80%29.96 "Hg10 mi
6:53 pm56 °FPassing clouds.5 mph77%29.95 "Hg10 mi
5:53 pm57 °FPassing clouds.3 mph74%29.94 "Hg10 mi
4:53 pm59 °FOvercast.6 mph72%29.93 "Hg10 mi
3:53 pm61 °FPartly sunny.N/A62%29.92 "Hg10 mi
2:53 pm62 °FMostly cloudy.6 mph58%29.91 "Hg10 mi
1:53 pm62 °FPartly sunny.No wind56%29.91 "Hg10 mi
12:53 pm61 °FBroken clouds.No wind56%29.93 "Hg10 mi
11:53 am61 °FOvercast.3 mph52%29.95 "Hg10 mi
10:53 am60 °FOvercast.3 mph67%29.98 "Hg7 mi
9:53 am56 °FMostly cloudy.No wind81%30.00 "Hg5 mi
8:53 am54 °FSunny.No wind83%29.99 "Hg5 mi
7:53 am51 °FFog.No wind92%29.97 "Hg5 mi
6:53 am50 °FFog.3 mph93%29.96 "Hg5 mi
Weather by CustomWeather, © 2016

See weather overviewHow to use our weather pages